TimePDT,TemperatureF,Dew PointF,Humidity,Sea Level PressureIn,VisibilityMPH,Wind Direction,Wind SpeedMPH,Gust SpeedMPH,PrecipitationIn,Events,Conditions,WindDirDegrees,DateUTC
12:53 AM,66.9,41.0,39,29.86,10.0,South,10.4,-,N/A,,Partly Cloudy,190,2013-07-29 07:53:00
1:53 AM,66.0,42.1,42,29.86,10.0,SSE,10.4,-,N/A,,Clear,160,2013-07-29 08:53:00
2:53 AM,66.0,41.0,40,29.86,10.0,South,10.4,-,N/A,,Clear,170,2013-07-29 09:53:00
3:53 AM,64.0,39.9,41,29.87,10.0,South,9.2,-,N/A,,Clear,180,2013-07-29 10:53:00
4:53 AM,61.0,39.9,46,29.88,10.0,South,5.8,-,N/A,,Clear,180,2013-07-29 11:53:00
5:53 AM,61.0,39.9,46,29.89,10.0,SSE,4.6,-,N/A,,Clear,160,2013-07-29 12:53:00
6:53 AM,64.0,39.0,40,29.90,10.0,South,5.8,-,N/A,,Clear,180,2013-07-29 13:53:00
7:53 AM,68.0,37.9,33,29.91,10.0,SSW,11.5,-,N/A,,Clear,200,2013-07-29 14:53:00
8:53 AM,72.0,39.9,31,29.91,10.0,SW,13.8,-,N/A,,Clear,230,2013-07-29 15:53:00
9:53 AM,73.9,39.0,28,29.91,10.0,WSW,11.5,-,N/A,,Clear,240,2013-07-29 16:53:00
10:53 AM,75.9,39.9,27,29.90,10.0,SSW,4.6,-,N/A,,Clear,200,2013-07-29 17:53:00
11:53 AM,79.0,39.0,24,29.89,10.0,SW,8.1,-,N/A,,Clear,230,2013-07-29 18:53:00
12:53 PM,81.0,39.0,22,29.88,10.0,Variable,4.6,-,N/A,,Clear,0,2013-07-29 19:53:00
1:53 PM,84.9,37.0,18,29.86,10.0,WSW,5.8,-,N/A,,Clear,240,2013-07-29 20:53:00
2:53 PM,87.1,36.0,16,29.85,10.0,Variable,4.6,-,N/A,,Clear,0,2013-07-29 21:53:00
3:53 PM,89.1,30.0,12,29.83,10.0,SSW,9.2,-,N/A,,Clear,210,2013-07-29 22:53:00
4:53 PM,90.0,28.9,11,29.83,10.0,West,11.5,-,N/A,,Clear,270,2013-07-29 23:53:00
5:53 PM,90.0,28.9,11,29.82,10.0,SSW,6.9,-,N/A,,Clear,210,2013-07-30 00:53:00
6:53 PM,89.1,28.0,11,29.82,10.0,WSW,5.8,-,N/A,,Clear,240,2013-07-30 01:53:00
7:53 PM,87.1,32.0,14,29.83,10.0,West,8.1,-,N/A,,Clear,260,2013-07-30 02:53:00
8:53 PM,81.0,36.0,20,29.83,10.0,WNW,3.5,-,N/A,,Clear,300,2013-07-30 03:53:00
9:53 PM,75.0,37.9,26,29.86,10.0,ESE,5.8,-,N/A,,Clear,110,2013-07-30 04:53:00
10:53 PM,73.0,37.9,28,29.87,10.0,ESE,6.9,-,N/A,,Clear,110,2013-07-30 05:53:00
11:53 PM,73.0,37.0,27,29.88,10.0,East,6.9,-,N/A,,Clear,100,2013-07-30 06:53:00